Погода в Таежном

Россия / Красноярский край     58°39′41″N   100°28′54″E
темп.,
°C
ветер,
м/с
пор.,
м/с
влажн.,
%
обл.,
%
осадки,
мм/ч
давл.,
гПа
погр.,
м
17 октября, вс
вс1701:00+1ссз4779100 0.2 1027450
04:00−5сз21965 0.0 102924
07:00−6сз11977 0.0 103018
10:000сз117712 0.0 1031285
13:00+3зюз12655 0.0 1030629
16:00+1зюз11835 0.0 103010
19:00−4юз119527 0.0 103110
22:00−5ююз119713 0.0 103111
18 октября, пн
пн1801:00−5ююз119612 0.0 103014
04:00−5ююз119726 0.0 102914
07:00−5ююз119748 0.0 102914
10:00+1ююз237812 0.0 1027227
13:00+4юз24715 0.0 1025539
16:00+2ююз118723 0.0 102511
19:00−2ююз11937 0.0 102510
22:00−4ююз11975 0.0 102516
19 октября, вт
вт1901:00−3юз129778 0.0 102437
04:00−4юз119883 0.0 102425
07:00−4зюз239782 0.0 102451
10:00+2з48805 0.0 1024455
13:00+3з4778100 0.0 1025759
16:00+2зюз3890100 0.0 1025409
19:00+1зюз3992100 0.0 1026397
22:000зюз379480 0.0 1026262
20 октября, ср
ср2001:00+1зюз3895100 0.0 1026505
04:00+1ююз3109594 0.0 1025366
07:00+1юз31098100 0.0 1025509
10:00+2юз31096100 0.0 1025462
13:00+3юз31089100 0.0 1024406
16:00+3юз388974 0.0 1024285
19:00+1ююз259371 0.0 1024115
22:00+1ююз2591100 0.0 1023111
21 октября, чт
чт2101:000юз259240 0.0 102285
04:00−1юз2291100 0.0 102222
07:00−1ююз2291100 0.0 102122
10:00+3ю247998 0.0 1020141
13:00+6ю2669100 0.0 1017320
16:00+3ю11855 0.0 101611
19:00+1ююз228851 0.0 101612
22:000ююз2289100 0.0 101513